Torna al catalogo

COSMOS 2535 DEB

AttivoSSO
NORAD 44632·DEBRIS·🇷🇺 Russia

Lanciato Jul 10, 2019 da Plesetsk Cosmodrome

Loading…

Prossimi Passaggi (prossime 24 ore)

TLE

AggiornatoSource: Space-Track

Epoca: Sep 14, 2026, 20:35 UTC

1 44632U 19039J   26257.85791742  .00008060  00000-0  41569-3 0  9998
2 44632  97.5081 296.3504 0012377  74.0842 286.1754 15.16549812378592

Traccia COSMOS 2535 DEB in tempo reale con AllMySat

Download on the App Store